Location: Gull Harbor
(47.1000°N, 122.9000°W)
Time: 10:05:54
(UTC-07:00)

ISS - Visible Passes

Search period start: 24 September 2018 00:00
Search period end: 04 October 2018 00:00
Orbit: 403 x 409 km, 51.6° (Epoch: 25 September)

Date Brightness Start Highest point End Pass type
(mag) Time Alt. Az. Time Alt. Az. Time Alt. Az.
24 Sep -3.9 20:34:53 10° WSW 20:38:11 76° SSE 20:39:09 42° ENE visible
24 Sep -0.3 22:11:45 10° W 22:11:50 10° W 22:11:50 10° W visible
25 Sep -3.4 19:43:11 10° SW 19:46:22 46° SSE 19:49:31 10° ENE visible
25 Sep -2.4 21:19:42 10° W 21:22:13 39° NW 21:22:13 39° NW visible
26 Sep -3.5 20:27:41 10° WSW 20:30:57 62° NNW 20:32:29 28° NE visible
26 Sep -0.4 22:04:44 10° WNW 22:05:10 13° WNW 22:05:10 13° WNW visible
27 Sep -3.8 19:35:43 10° WSW 19:39:02 90° NNW 19:42:21 10° ENE visible
27 Sep -2.3 21:12:41 10° WNW 21:15:20 35° NNW 21:15:20 35° NNW visible
28 Sep -2.9 20:20:35 10° W 20:23:46 43° NNW 20:25:26 23° NE visible
28 Sep -0.5 21:57:34 10° WNW 21:58:07 14° WNW 21:58:07 14° WNW visible
29 Sep -3.2 19:28:30 10° W 19:31:45 54° NNW 19:35:01 10° ENE visible
29 Sep -2.3 21:05:34 10° WNW 21:08:11 33° NNW 21:08:11 33° NNW visible
30 Sep -2.6 20:13:29 10° WNW 20:16:35 36° N 20:18:12 22° NE visible
30 Sep -0.6 21:50:16 10° WNW 21:50:52 14° WNW 21:50:52 14° WNW visible
01 Oct -2.8 19:21:22 10° W 19:24:31 40° N 19:27:39 10° ENE visible
01 Oct -2.5 20:58:18 10° WNW 21:00:52 36° NNW 21:00:52 36° NNW visible
02 Oct -2.7 20:06:17 10° WNW 20:09:22 36° N 20:10:52 23° NE visible
02 Oct -0.6 21:42:51 10° WNW 21:43:32 15° WNW 21:43:32 15° WNW visible
03 Oct -2.7 19:14:10 10° WNW 19:17:16 35° N 19:20:21 10° ENE visible
03 Oct -2.9 20:50:53 10° WNW 20:53:31 46° NNW 20:53:31 46° NNW visible
